SL-16 DEB, 22602

Orbit data source: Space-Track

SL-16 DEB, 22602 is space debris in LEO originally from a launch on Fri, 26 Mar 1993 UTC launched from the Tyuratam Missile And Space Complex (TTMTR). Debris objects in space refer to the collection of defunct objects orbiting the Earth. Examples of debris include non-operational satellites, rocket bodies, and fragments generated from explosions, collisions, or faulty payload assembly.

Loading next visibility...
Identifier
22602, 1993-016L
Orbit
LEO
Country
Flag of CISCIS
Related business
Manufacturer
Unknown
Mission
Spacecraft
Bus & Motor
Unknown
Mass
Unknown
Launch date (UTC)
1993-03-26 (33 years ago)
Launch vehicle
Unknown
Launch site
Tyuratam Missile And Space Complex (TTMTR)
Object type
Payload
Rocket body
Debris
Shape & HBR
Unknown shape, 0.1 m
Radar Cross Section
Medium (>0.1 m² and <1 m²)

Expand to show TLE details & history
Last TLE update: 13 hours ago

TLE from 13 hours ago
0 SL-16 DEB
1 22602U 93016L   26255.12565256 -.00000003  00000-0  36635-4 0  9994
2 22602  71.0448 142.4211 0200382 328.7345 183.0806 13.74173338677084
Epoch: 2026-09-12T03:00Z
TLE epoch observation values (Epoch: 2026-09-12T03:00:56.381Z)
Latitude
26.68803°
Longitude
-83.84385°
Altitude
1,134.682 km
Speed
7.215 km/s
True Right ascension
20h 50m 07s
True Declination
26° 33' 26"
Sunlit
Object was in full shadow at epoch
Visualization orbit readout
Latitude
Unknown
Longitude
Unknown
Altitude
Unknown
Speed
Unknown
Apparent Right ascension
Unknown
Apparent Declination
Unknown
Sunlit
N/A
Visualization observer readout
Local Sidereal Time
08:48:01
Azimuth
Unknown
Elevation
Unknown
Doppler factor
Unknown
Orbital elements
Apogee altitude
1,130.081 km
Perigee altitude
835.09 km
Semi-major axis
7,360.723 km
Eccentricity
0.02004
Inclination
71.0448°
RAAN
142.4211°
Arg. of periapsis
328.7345°
True anomaly
182.96021°
Mean anomaly
183.0806°
Eccentric anomaly
183.02011°
Mean motion
3.43687 °/min
Orbital period
104.75 mins
BSTAR
0.000036635
Loading maneuver chart data...
Computing Atmospheric mass density...
Loading historical data...
Loading historical data...
Loading historical data...
Loading historical data...
Loading historical data...
Loading historical data...
Loading historical data...

Documentation

Showing up to 5 results
|